Weather History for West Plains, MO

Change the Weather History Date:

Sunday, March 17, 2013

  Actual Average Record
Temperature  
Mean Temperature 39 °F 48 °F  
Max Temperature 42 °F 60 °F 83 °F (1982)
Min Temperature 35 °F 36 °F 18 °F (1958)
Degree Days  
Heating Degree Days 26 17  
Month to date heating degree days 395 342  
Since 1 July heating degree days 3707 3806  
Cooling Degree Days 0 0  
Month to date cooling degree days 0 0  
Year to date cooling degree days 0 0  
Moisture  
Dew Point 36 °F    
Average Humidity 83    
Maximum Humidity 92    
Minimum Humidity 73    
Precipitation  
Precipitation 0.82 in 0.16 in 1.44 in (1987)
Month to date precipitation 2.63 2.19  
Year to date precipitation 9.95 7.75  
Sea Level Pressure  
Sea Level Pressure 29.86 in    
Wind  
Wind Speed 10 mph (ENE)    
Max Wind Speed 20 mph    
Max Gust Speed 26 mph    
Visibility 5 miles    
Events Rain , Thunderstorm    
T = Trace of Precipitation, MM = Missing Value Source: NWS Daily Summary

Daily Weather History Graph

Daily Weather History Graph

Search for Another Location

Airport:

Trip Planner

Search our weather history database for the weather conditions in past years. The results will help you decide how hot, cold, wet, or windy it might be!

Date:

Astronomy

Mar. 17, 2013 Rise Set
Actual Time 7:15 AM CDT 7:17 PM CDT
Civil Twilight 6:49 AM CDT 7:42 PM CDT
Nautical Twilight 6:19 AM CDT 8:13 PM CDT
Astronomical Twilight 5:48 AM CDT 8:43 PM CDT
Moon 10:36 AM CDT (3/17) 12:17 AM CDT (3/17)
Length of Visible Light 12h 53m
Length of Day
12h 01m
Waxing Crescent, 31% of the Moon is Illuminated
Mar 17
Waxing Crescent
Mar 19
First Quarter
Mar 27
Full
Apr 2
Last Quarter
Apr 10
New

Hourly Weather History & Observations

Time (CDT) Temp. Windchill Dew Point Humidity Pressure Visibility Wind Dir Wind Speed Gust Speed Precip Events Conditions
12:53 AM 42.1 °F 34.9 °F 35.1 °F 76% 29.91 in 6.0 mi ENE 13.8 mph - N/A   Haze
1:53 AM 41.0 °F 35.2 °F 34.0 °F 76% 29.91 in 5.0 mi ENE 9.2 mph - N/A   Haze
2:21 AM 41.0 °F 34.7 °F 33.8 °F 76% 29.92 in 5.0 mi ENE 10.4 mph - N/A   Haze
2:28 AM 41.0 °F 34.3 °F 33.8 °F 76% 29.93 in 5.0 mi NE 11.5 mph - N/A   Haze
2:35 AM 41.0 °F 35.2 °F 35.6 °F 81% 29.93 in 5.0 mi NE 9.2 mph - N/A   Haze
2:53 AM 41.0 °F 35.2 °F 35.1 °F 79% 29.92 in 6.0 mi NE 9.2 mph - N/A   Haze
3:53 AM 41.0 °F 34.7 °F 35.1 °F 79% 29.91 in 7.0 mi NE 10.4 mph - N/A   Overcast
4:05 AM 41.0 °F 33.5 °F 33.8 °F 76% 29.92 in 7.0 mi NE 13.8 mph 25.3 mph N/A   Overcast
4:53 AM 39.0 °F 31.4 °F 33.1 °F 79% 29.94 in 10.0 mi NE 12.7 mph - N/A   Overcast
5:53 AM 37.9 °F 30.0 °F 33.1 °F 83% 29.95 in 10.0 mi ENE 12.7 mph 19.6 mph N/A   Overcast
6:53 AM 37.0 °F 28.9 °F 34.0 °F 89% 29.95 in 10.0 mi ENE 12.7 mph - 0.00 in   Overcast
7:33 AM 37.4 °F 29.3 °F 33.8 °F 87% 29.95 in 2.5 mi NNE 12.7 mph - 0.05 in Rain , Thunderstorm Rain
7:42 AM 37.4 °F 31.4 °F 33.8 °F 87% 29.98 in 4.0 mi NNE 8.1 mph - 0.06 in Rain , Thunderstorm Light Thunderstorms and Rain
7:53 AM 36.0 °F 29.0 °F 34.0 °F 93% 29.97 in 2.0 mi ENE 9.2 mph - 0.17 in Rain , Thunderstorm Heavy Thunderstorms and Rain
8:04 AM 35.6 °F 27.5 °F 33.8 °F 93% 29.96 in 6.0 mi ENE 11.5 mph - 0.01 in Rain , Thunderstorm Light Rain
8:23 AM 35.6 °F 28.0 °F 33.8 °F 93% 29.98 in 5.0 mi NNE 10.4 mph - 0.02 in Rain Light Rain
8:44 AM 35.6 °F 27.5 °F 33.8 °F 93% 30.02 in 2.5 mi NNE 11.5 mph 21.9 mph 0.03 in Rain , Thunderstorm Light Rain
8:53 AM 36.0 °F 29.0 °F 33.1 °F 89% 30.02 in 2.0 mi NE 9.2 mph - 0.05 in Rain , Thunderstorm Light Thunderstorms and Rain
9:00 AM 35.6 °F 28.0 °F 33.8 °F 93% 29.98 in 2.5 mi East 10.4 mph - 0.01 in Rain , Thunderstorm Light Thunderstorms and Rain
9:10 AM 35.6 °F 27.1 °F 33.8 °F 93% 29.97 in 1.2 mi East 12.7 mph - 0.09 in Rain , Thunderstorm Heavy Thunderstorms and Rain
9:16 AM 35.6 °F 27.1 °F 33.8 °F 93% 29.98 in 2.0 mi ENE 12.7 mph - 0.10 in Rain , Thunderstorm Thunderstorms and Rain
9:19 AM 35.6 °F 28.0 °F 33.8 °F 93% 29.98 in 3.0 mi ENE 10.4 mph 19.6 mph 0.10 in Rain Light Rain
9:53 AM 36.0 °F 28.0 °F 34.0 °F 93% 29.97 in 8.0 mi East 11.5 mph - 0.12 in Rain Light Rain
10:53 AM 37.9 °F 30.9 °F 35.1 °F 89% 29.96 in 10.0 mi ENE 10.4 mph - 0.00 in   Overcast
11:20 AM 37.4 °F 30.8 °F 35.6 °F 93% 29.93 in 10.0 mi ENE 9.2 mph 18.4 mph N/A   Overcast
11:53 AM 37.9 °F 30.0 °F 36.0 °F 93% 29.93 in 10.0 mi East 12.7 mph - 0.00 in   Overcast
12:53 PM 39.0 °F 32.3 °F 37.0 °F 93% 29.91 in 8.0 mi East 10.4 mph - N/A   Overcast
1:48 PM 39.2 °F 33.0 °F 37.4 °F 93% 29.88 in 10.0 mi East 9.2 mph - N/A   Overcast
1:53 PM 39.0 °F 33.4 °F 37.9 °F 96% 29.89 in 9.0 mi East 8.1 mph - N/A   Overcast
2:14 PM 39.2 °F 33.0 °F 37.4 °F 93% 29.86 in 1.8 mi ENE 9.2 mph - N/A   Overcast
2:31 PM 39.2 °F 34.2 °F 37.4 °F 93% 29.85 in 2.5 mi ENE 6.9 mph - N/A   Overcast
3:04 PM 39.2 °F 31.6 °F 37.4 °F 93% 29.82 in 1.5 mi ENE 12.7 mph - 0.00 in   Overcast
3:51 PM 39.2 °F 32.0 °F 37.4 °F 93% 29.79 in 2.0 mi East 11.5 mph - 0.00 in   Overcast
3:53 PM 39.0 °F 31.8 °F 37.0 °F 93% 29.80 in 2.0 mi East 11.5 mph 19.6 mph 0.00 in   Overcast
4:02 PM 39.2 °F 31.6 °F 37.4 °F 93% 29.79 in 3.0 mi East 12.7 mph 19.6 mph 0.01 in Thunderstorm Overcast
4:14 PM 39.2 °F 32.5 °F 37.4 °F 93% 29.78 in 2.0 mi East 10.4 mph - 0.09 in Rain , Thunderstorm Heavy Rain
4:25 PM 39.2 °F 31.6 °F 37.4 °F 93% 29.78 in 3.0 mi East 12.7 mph - 0.10 in Rain , Thunderstorm Light Rain
4:34 PM 39.2 °F 33.0 °F 37.4 °F 93% 29.78 in 2.0 mi East 9.2 mph - 0.10 in Rain Light Rain
4:42 PM 39.2 °F 32.5 °F 37.4 °F 93% 29.78 in 1.5 mi East 10.4 mph 18.4 mph 0.11 in Rain Light Rain
4:53 PM 39.0 °F 31.0 °F 37.0 °F 93% 29.79 in 1.8 mi East 13.8 mph - 0.11 in Rain Light Rain
4:59 PM 39.2 °F 32.5 °F 37.4 °F 93% 29.77 in 3.0 mi East 10.4 mph - 0.00 in Rain Light Rain
5:13 PM 39.2 °F 32.5 °F 37.4 °F 93% 29.75 in 2.0 mi East 10.4 mph 19.6 mph 0.00 in Thunderstorm Overcast
5:41 PM 39.2 °F 32.0 °F 37.4 °F 93% 29.76 in 1.5 mi East 11.5 mph - 0.01 in Rain , Thunderstorm Light Rain
5:53 PM 39.0 °F 31.4 °F 37.0 °F 93% 29.76 in 3.0 mi East 12.7 mph - 0.01 in Thunderstorm Overcast
6:03 PM 39.2 °F 32.5 °F 37.4 °F 93% 29.75 in 10.0 mi East 10.4 mph - N/A   Overcast
6:35 PM 39.2 °F 32.5 °F 37.4 °F 93% 29.75 in 2.5 mi East 10.4 mph - 0.00 in   Overcast
6:42 PM 39.2 °F 32.5 °F 37.4 °F 93% 29.75 in 3.0 mi East 10.4 mph - 0.00 in   Overcast
6:53 PM 39.0 °F 31.4 °F 37.0 °F 93% 29.76 in 2.5 mi East 12.7 mph - 0.00 in   Overcast
7:44 PM 39.2 °F 32.0 °F 37.4 °F 93% 29.74 in 3.0 mi ENE 11.5 mph - 0.01 in   Overcast
7:53 PM 39.0 °F 32.3 °F 37.0 °F 93% 29.75 in 2.5 mi ENE 10.4 mph - 0.01 in   Overcast
8:38 PM 39.2 °F 32.0 °F 37.4 °F 93% 29.73 in 2.5 mi ENE 11.5 mph - 0.01 in Rain , Thunderstorm Light Thunderstorms and Rain
8:53 PM 39.0 °F 33.4 °F 37.0 °F 93% 29.78 in 2.5 mi North 8.1 mph - 0.02 in Rain , Thunderstorm Light Thunderstorms and Rain
9:10 PM 39.2 °F 33.6 °F 37.4 °F 93% 29.76 in 2.5 mi NE 8.1 mph - 0.15 in Rain , Thunderstorm Heavy Thunderstorms and Rain
9:19 PM 39.2 °F 33.6 °F 37.4 °F 93% 29.77 in 4.0 mi NNE 8.1 mph - 0.18 in Rain , Thunderstorm Rain
9:41 PM 37.4 °F 30.8 °F 35.6 °F 93% 29.76 in 10.0 mi East 9.2 mph - 0.19 in Rain , Thunderstorm Light Thunderstorms and Rain
9:53 PM 37.9 °F 30.9 °F 36.0 °F 93% 29.76 in 4.0 mi ENE 10.4 mph - 0.27 in Rain Light Rain
10:32 PM 37.4 °F 32.1 °F 35.6 °F 93% 29.74 in 8.0 mi East 6.9 mph - 0.01 in Rain Light Rain
10:53 PM 37.9 °F 33.5 °F 36.0 °F 93% 29.75 in 10.0 mi East 5.8 mph - 0.01 in Rain Light Rain
11:19 PM 37.4 °F 33.8 °F 35.6 °F 93% 29.73 in 10.0 mi East 4.6 mph - 0.04 in Rain Light Rain
11:53 PM 37.9 °F 32.1 °F 36.0 °F 93% 29.75 in 10.0 mi ESE 8.1 mph - 0.04 in   Overcast